Weather History for Chicago Midway, IL

Change the Weather History Date:

Friday, August 1, 2014

  Actual Average Record
Temperature  
Mean Temperature 75 °F 75 °F  
Max Temperature 83 °F 83 °F 100 °F (1988)
Min Temperature 67 °F 67 °F 52 °F (1947)
Degree Days  
Heating Degree Days 0 0  
Month to date heating degree days 0 0  
Since 1 June heating degree days 3 32  
Since 1 July heating degree days 1 1  
Cooling Degree Days 10 10  
Month to date cooling degree days 10 10  
Year to date cooling degree days 611 632  
Since 1 June cooling degree days 500 558  
Growing Degree Days 24 (Base 50)    
Moisture  
Dew Point 61 °F    
Average Humidity 66    
Maximum Humidity 84    
Minimum Humidity 43    
Precipitation  
Precipitation 0.21 in 0.15 in 2.55 in (1961)
Month to date precipitation 0.21 0.15  
Year to date precipitation 24.40 22.71  
Sea Level Pressure  
Sea Level Pressure 30.06 in    
Wind  
Wind Speed 7 mph (WSW)    
Max Wind Speed 29 mph    
Max Gust Speed 37 mph    
Visibility 10 miles    
Events Rain , Thunderstorm    
T = Trace of Precipitation, MM = Missing Value Source: NWS Daily Summary

Daily Weather History Graph

Daily Weather History Graph

Search for Another Location

Airport:

Trip Planner

Search our weather history database for the weather conditions in past years. The results will help you decide how hot, cold, wet, or windy it might be!

Date:

Astronomy

Aug. 01, 2014 Rise Set
Actual Time 5:45 AM CDT 8:09 PM CDT
Civil Twilight 5:13 AM CDT 8:40 PM CDT
Nautical Twilight 4:34 AM CDT 9:19 PM CDT
Astronomical Twilight 3:51 AM CDT 10:02 PM CDT
Moon 11:14 AM CDT 10:47 PM CDT
Length of Visible Light 15h 26m
Length of Day
14h 23m
Waxing Crescent, 28% of the Moon is Illuminated
Aug 1
Waxing Crescent
Aug 3
First Quarter
Aug 10
Full
Aug 17
Last Quarter
Aug 25
New

Hourly Weather History & Observations

Time (CDT) Temp. Heat Index Dew Point Humidity Pressure Visibility Wind Dir Wind Speed Gust Speed Precip Events Conditions
12:51 AM 72.0 °F - 62.1 °F 71% 30.02 in 10.0 mi SW 5.8 mph - N/A   Clear
1:51 AM 71.1 °F - 62.1 °F 73% 30.01 in 10.0 mi SSW 4.6 mph - N/A   Clear
2:51 AM 70.0 °F - 62.1 °F 76% 30.02 in 10.0 mi SW 5.8 mph - N/A   Partly Cloudy
3:51 AM 68.0 °F - 63.0 °F 84% 30.03 in 10.0 mi WSW 6.9 mph - N/A   Partly Cloudy
4:51 AM 66.9 °F - 62.1 °F 84% 30.03 in 9.0 mi WSW 4.6 mph - N/A   Partly Cloudy
5:51 AM 68.0 °F - 63.0 °F 84% 30.04 in 6.0 mi WSW 8.1 mph - N/A   Haze
6:51 AM 69.8 °F - 62.6 °F 78% 30.07 in 9.0 mi WSW 4.6 mph - N/A   Mostly Cloudy
7:51 AM 73.0 °F - 59.0 °F 61% 30.07 in 10.0 mi WSW 10.4 mph - N/A   Mostly Cloudy
8:51 AM 73.0 °F - 60.1 °F 64% 30.06 in 10.0 mi West 4.6 mph - N/A   Mostly Cloudy
9:51 AM 75.2 °F - 57.2 °F 53% 30.09 in 10.0 mi SW 5.8 mph - N/A   Scattered Clouds
10:51 AM 82.0 °F 82.0 °F 57.9 °F 44% 30.06 in 10.0 mi SSW 6.9 mph - N/A   Mostly Cloudy
11:51 AM 81.0 °F 81.0 °F 57.0 °F 44% 30.06 in 10.0 mi WSW 10.4 mph - N/A   Mostly Cloudy
12:10 PM 70.0 °F - 59.0 °F 68% 30.10 in 10.0 mi NW 20.7 mph - 0.03 in Rain , Thunderstorm Light Thunderstorms and Rain
12:32 PM 72.0 °F - 60.1 °F 66% 30.09 in 10.0 mi West 8.1 mph - 0.14 in Rain Light Rain
12:51 PM 72.0 °F - 61.0 °F 68% 30.06 in 10.0 mi SW 11.5 mph - 0.16 in Rain Light Rain
1:51 PM 81.0 °F 82.7 °F 64.9 °F 58% 30.04 in 10.0 mi SW 10.4 mph - 0.00 in   Scattered Clouds
2:51 PM 75.0 °F - 64.0 °F 69% 30.05 in 10.0 mi WSW 9.2 mph - 0.01 in Rain , Thunderstorm Light Thunderstorms and Rain
3:38 PM 75.0 °F - 66.0 °F 73% 30.07 in 10.0 mi Variable 3.5 mph - 0.04 in Rain Light Rain
3:51 PM 73.4 °F - 66.2 °F 78% 30.07 in 10.0 mi NNW 5.8 mph - N/A   Overcast
4:51 PM 75.9 °F - 62.1 °F 62% 30.04 in 10.0 mi SE 10.4 mph - N/A   Mostly Cloudy
5:51 PM 77.0 °F - 59.0 °F 54% 30.06 in 10.0 mi SSW 6.9 mph - N/A   Mostly Cloudy
6:51 PM 75.0 °F - 57.9 °F 55% 30.05 in 10.0 mi SSW 12.7 mph 17.3 mph N/A   Mostly Cloudy
7:51 PM 72.0 °F - 60.1 °F 66% 30.06 in 10.0 mi SW 9.2 mph - N/A   Mostly Cloudy
8:51 PM 70.0 °F - 60.1 °F 71% 30.07 in 10.0 mi NW 3.5 mph - N/A   Mostly Cloudy
9:51 PM 70.0 °F - 61.0 °F 73% 30.10 in 10.0 mi WNW 3.5 mph - N/A   Mostly Cloudy
10:51 PM 71.6 °F - 57.2 °F 60% 30.11 in 10.0 mi NNW 9.2 mph - N/A   Mostly Cloudy
11:51 PM 71.1 °F - 55.0 °F 57% 30.06 in 10.0 mi East 4.6 mph - N/A   Overcast